CW5229 Weather Reports


Display with metric or nautical units.
time (UTC)temp
F
wind
direction
speed
MPH
gust
MPH
rain 1hr
in
rain 24hr
in
rain mn
in
humidity
%
barometer
mb
20260901010017 80 155 0.0 5.0 0.02 0.04 0.02 82 1011.2
20260901004516 80 266 1.0 5.0 0.02 0.04 0.02 83 1010.7
20260901003013 82 46 1.0 6.0 0.02 0.04 0.02 81 1010.2
20260901001510 84 136 0.0 3.0 0.00 0.02 0.00 75 1012.0
20260901000015 85 165 1.0 3.0 0.00 0.02 0.00 73 1012.1
20260831234509 86 241 0.0 4.0 0.00 0.02 0.00 71 1011.5
20260831233006 87 104 0.0 2.0 0.00 0.02 0.00 70 1011.8
20260831231516 87 118 0.0 2.0 0.00 0.02 0.00 70 1011.8
20260831230004 88 157 0.0 2.0 0.00 0.02 0.00 68 1012.0
20260831224502 89 126 0.0 4.0 0.00 0.02 0.00 66 1011.4
20260831223058 91 294 0.0 5.0 0.00 0.02 0.00 64 1011.1
20260831221610 91 179 1.0 6.0 0.00 0.02 0.00 63 1011.1
20260831220057 93 156 1.0 5.0 0.00 0.02 0.00 61 1010.9
20260831214558 92 173 0.0 4.0 0.00 0.02 0.00 61 1011.0
20260831213025 91 243 0.0 3.0 0.00 0.02 0.00 64 1011.3
20260831211525 91 250 3.0 8.0 0.00 0.02 0.00 61 1011.3
20260831210022 92 151 2.0 8.0 0.00 0.02 0.00 59 1011.2
20260831204522 93 174 2.0 9.0 0.00 0.03 0.00 58 1011.0
20260831203032 92 248 3.0 9.0 0.00 0.03 0.00 58 1010.6
20260831201518 92 73 2.0 6.0 0.00 0.03 0.00 58 1010.7
20260831200014 92 280 2.0 6.0 0.00 0.03 0.00 58 1010.8
20260831194553 91 285 3.0 8.0 0.00 0.03 0.00 58 1011.2
20260831193048 91 323 3.0 7.0 0.00 0.03 0.00 58 1011.2
20260831191545 90 145 2.0 5.0 0.00 0.03 0.00 61 1011.3
20260831190032 90 279 3.0 8.0 0.00 0.03 0.00 59 1011.6
20260831184528 90 103 1.0 6.0 0.00 0.03 0.00 62 1011.7
20260831183029 89 305 1.0 6.0 0.00 0.03 0.00 63 1011.8
20260831181520 88 272 2.0 11.0 0.00 0.03 0.00 61 1012.0
20260831180016 88 218 2.0 7.0 0.00 0.03 0.00 63 1012.3
20260831174513 87 270 1.0 5.0 0.00 0.03 0.00 66 1012.5
20260831173008 85 101 0.0 5.0 0.00 0.03 0.00 70 1012.8
20260831171534 82 195 0.0 4.0 0.00 0.03 0.00 73 1013.3
20260831170030 79 211 0.0 3.0 0.00 0.03 0.00 78 1013.5
20260831164602 77 269 0.0 4.0 0.00 0.03 0.03 80 1013.8
20260831163058 78 215 1.0 3.0 0.00 0.03 0.03 77 1014.0
20260831161531 78 44 0.0 5.0 0.00 0.03 0.03 76 1014.1
20260831160030 77 163 0.0 1.0 0.00 0.03 0.03 78 1014.2
20260831154547 76 272 1.0 4.0 0.00 0.03 0.03 81 1014.3
20260831153027 74 146 0.0 2.0 0.00 0.03 0.03 84 1014.3
20260831151530 74 281 0.0 0.0 0.01 0.03 0.03 85 1014.3
20260831150023 73 284 0.0 1.0 0.01 0.03 0.03 85 1014.5
20260831144554 73 58 0.0 2.0 0.01 0.05 0.03 86 1014.8
20260831143105 71 341 0.0 3.0 0.01 0.05 0.03 88 1014.8
20260831141550 71 347 2.0 5.0 0.00 0.04 0.02 88 1014.9
20260831140047 71 113 0.0 1.0 0.00 0.04 0.02 87 1014.2
20260831134556 71 264 0.0 1.0 0.00 0.07 0.02 87 1014.6
20260831133047 70 269 0.0 1.0 0.00 0.07 0.02 87 1014.5
20260831131546 0 0.0 0.0 0.00 0.07 0.02 1014.3
20260831130050 0 0.0 0.0 0.00 0.07 0.02 1014.1
20260831124549 0 0.0 0.0 0.00 0.07 0.02 1014.3
20260831123047 0 0.0 0.0 0.00 0.07 0.02 1013.5
20260831121510 0 0.0 0.0 0.00 0.07 0.02 1013.2
20260831120005 0 0.0 0.0 0.00 0.07 0.02 1013.2
20260831114559 0 0.0 0.0 0.00 0.07 0.02 1012.9
20260831113054 0 0.0 0.0 0.00 0.07 0.02 1012.7
20260831111553 0 0.0 0.0 0.00 0.07 0.02 1012.8
20260831110046 0 0.0 0.0 0.00 0.07 0.02 1012.5
20260831104512 0 0.0 0.0 0.00 0.07 0.02 1012.7
20260831103009 0 127 0.0 0.0 0.00 0.07 0.02 1012.7
20260831101503 71 151 0.0 0.0 0.00 0.07 0.02 83 1012.7
20260831100002 72 108 0.0 0.0 0.00 0.07 0.02 82 1012.7
20260831094504 72 117 0.0 0.0 0.00 0.07 0.02 81 1012.6
20260831093000 73 158 0.0 1.0 0.00 0.07 0.02 81 1012.8
20260831091614 73 96 0.0 2.0 0.00 0.07 0.02 80 1012.8
20260831084559 73 266 0.0 4.0 0.00 0.07 0.02 79 1012.6
20260831083059 73 200 0.0 3.0 0.00 0.07 0.02 80 1012.7
20260831081534 73 249 0.0 3.0 0.00 0.07 0.02 81 1012.7
20260831080026 72 32 0.0 2.0 0.00 0.07 0.02 83 1012.7
20260831074527 72 148 0.0 1.0 0.00 0.07 0.02 84 1012.7
20260831073022 72 140 0.0 0.0 0.00 0.07 0.02 85 1012.8
20260831071521 72 98 0.0 0.0 0.00 0.07 0.02 85 1013.1
20260831070021 72 124 0.0 0.0 0.00 0.07 0.02 86 1013.3
20260831064520 71 124 0.0 0.0 0.00 0.07 0.02 87 1013.2
20260831063049 72 124 0.0 0.0 0.00 0.07 0.02 87 1013.1
20260831061547 73 124 0.0 0.0 0.00 0.07 0.02 87 1013.1
20260831060015 73 113 0.0 0.0 0.00 0.07 0.02 87 1012.9
20260831054515 73 113 0.0 0.0 0.00 0.07 0.02 87 1013.0
20260831053033 74 89 0.0 1.0 0.00 0.07 0.02 87 1012.8
20260831051511 74 72 0.0 2.0 0.01 0.07 0.02 87 1012.8
20260831050011 74 120 0.0 5.0 0.01 0.07 0.02 87 1012.8
20260831044513 74 77 0.0 5.0 0.01 0.07 0.02 88 1013.0
20260831043043 73 245 0.0 1.0 0.01 0.07 0.02 89 1013.0
20260831041542 73 119 0.0 1.0 0.00 0.06 0.01 90 1013.2
20260831040037 73 94 0.0 0.0 0.00 0.06 0.01 90 1013.6
20260831034536 73 93 0.0 0.0 0.00 0.06 0.01 90 1013.9
20260831033046 74 138 0.0 0.0 0.00 0.06 0.01 89 1014.3
20260831031536 74 184 0.0 0.0 0.00 0.06 0.01 89 1014.0
20260831030029 74 242 0.0 3.0 0.00 0.06 0.01 89 1013.9
20260831024529 73 217 0.0 2.0 0.00 0.06 0.01 89 1013.9
20260831023035 73 119 0.0 0.0 0.00 0.06 0.01 90 1013.9
20260831021536 73 119 0.0 0.0 0.00 0.06 0.01 89 1014.2
20260831020053 74 119 0.0 0.0 0.00 0.06 0.01 88 1014.1
20260831014524 74 119 0.0 0.0 0.00 0.06 0.01 88 1013.7
20260831013026 74 119 0.0 0.0 0.00 0.06 0.01 87 1013.5
20260831011526 74 141 0.0 2.0 0.00 0.06 0.01 88 1012.9